N750XC KSDL-KAPC

Flight info

Callsign N750XC
Flight time N/A
Altitude 43000
Route MAYSA7 RRSTA CENIT KENNO LIN REJOY
Aircraft C750/M-SBDE3FGHRWXY/S

Departure

Time N/A
Airport Scottsdale Airport (KSDL)

Arrival

Time 2026-04-24 18:56
Airport Napa County Airport (KAPC)
Time Latitude Longitude Altitude Speed Heading
2026-04-24 17:08 33.62638 -111.90399 0 ft 0 kts 271°
2026-04-24 18:54 38.24843 -122.27378 677 ft 134 kts 180°
2026-04-24 18:55 38.23051 -122.27424 326 ft 124 kts 196°
2026-04-24 18:55 38.22292 -122.27800 84 ft 114 kts 199°
2026-04-24 18:55 38.21638 -122.28109 30 ft 74 kts 199°
2026-04-24 18:56 38.21294 -122.28285 27 ft 47 kts 201°
2026-04-24 18:56 38.21036 -122.28416 24 ft 24 kts 202°
2026-04-24 18:56 38.20976 -122.28357 24 ft 10 kts 77°
2026-04-24 18:56 38.20993 -122.28283 24 ft 8 kts 72°
2026-04-24 18:57 38.21005 -122.28226 25 ft 7 kts 76°
2026-04-24 18:57 38.21024 -122.28099 25 ft 21 kts 79°
2026-04-24 18:57 38.21078 -122.27895 28 ft 27 kts 41°
2026-04-24 18:57 38.21263 -122.27768 27 ft 32 kts 26°
2026-04-24 18:58 38.21443 -122.27652 27 ft 26 kts 27°
2026-04-24 18:58 38.21583 -122.27563 28 ft 19 kts 25°
2026-04-24 18:58 38.21688 -122.27551 29 ft 15 kts 335°
2026-04-24 18:58 38.21779 -122.27611 28 ft 14 kts 331°
2026-04-24 18:59 38.21832 -122.27628 28 ft 0 kts 36°
2026-04-24 18:59 38.21852 -122.27578 29 ft 10 kts 62°
2026-04-24 18:59 38.21866 -122.27543 29 ft 0 kts 62°